Time,TemperatureF,DewpointF,PressureIn,WindDirection,WindDirectionDegrees,WindSpeedMPH,WindSpeedGustMPH,Humidity,HourlyPrecipIn,Conditions,Clouds,dailyrainin,SolarRadiationWatts/m^2,SoftwareType,DateUTC
2013-01-24 00:00:00,25.2,10.8,30.46,NW,316,5.0,-999.0,60,-99.99,,,0.00,0.0,cwc,2013-01-24 07:00:00,
2013-01-24 00:05:00,25.4,10.6,30.46,NNW,341,4.0,-999.0,59,-99.99,,,0.00,0.0,cwc,2013-01-24 07:05:00,
2013-01-24 00:10:00,25.6,10.8,30.46,NNW,341,2.0,-999.0,59,-99.99,,,0.00,0.0,cwc,2013-01-24 07:10:00,
2013-01-24 00:15:00,25.7,10.6,30.45,NNW,340,3.0,-999.0,58,-99.99,,,0.00,0.0,cwc,2013-01-24 07:15:00,
2013-01-24 00:20:00,25.8,10.3,30.45,NNW,340,0.0,-999.0,57,-99.99,,,0.00,0.0,cwc,2013-01-24 07:20:00,
2013-01-24 00:25:00,25.8,10.7,30.45,NNW,340,2.0,-999.0,58,-99.99,,,0.00,0.0,cwc,2013-01-24 07:25:00,
2013-01-24 00:30:00,25.5,10.4,30.45,NNW,340,0.0,-999.0,58,-99.99,,,0.00,0.0,cwc,2013-01-24 07:30:00,
2013-01-24 00:35:00,25.0,10.2,30.45,NNW,340,1.0,-999.0,59,-99.99,,,0.00,0.0,cwc,2013-01-24 07:35:00,
2013-01-24 00:45:00,24.5,9.7,30.45,NNW,340,2.0,-999.0,59,-99.99,,,0.00,0.0,cwc,2013-01-24 07:45:00,
2013-01-24 00:50:00,24.3,9.9,30.45,NNW,340,1.0,-999.0,60,-99.99,,,0.00,0.0,cwc,2013-01-24 07:50:00,
2013-01-24 00:55:00,24.2,9.8,30.46,NNW,340,0.0,-999.0,60,-99.99,,,0.00,0.0,cwc,2013-01-24 07:55:00,
2013-01-24 01:00:00,24.2,9.8,30.45,NNW,340,0.0,-999.0,60,-99.99,,,0.00,0.0,cwc,2013-01-24 08:00:00,
2013-01-24 01:05:00,24.0,9.6,30.45,NNW,340,0.0,-999.0,60,-99.99,,,0.00,0.0,cwc,2013-01-24 08:05:00,
2013-01-24 01:10:00,23.8,9.8,30.46,NNW,340,0.0,-999.0,61,-99.99,,,0.00,0.0,cwc,2013-01-24 08:10:00,
2013-01-24 01:15:00,23.4,9.4,30.46,NNW,340,0.0,-999.0,61,-99.99,,,0.00,0.0,cwc,2013-01-24 08:15:00,
2013-01-24 01:20:00,22.7,9.0,30.46,NNW,340,0.0,-999.0,62,-99.99,,,0.00,0.0,cwc,2013-01-24 08:20:00,
2013-01-24 01:25:00,22.0,9.0,30.46,NNW,340,0.0,-999.0,64,-99.99,,,0.00,0.0,cwc,2013-01-24 08:25:00,
2013-01-24 01:30:00,21.4,8.8,30.46,NNW,340,0.0,-999.0,65,-99.99,,,0.00,0.0,cwc,2013-01-24 08:30:00,
2013-01-24 01:35:00,21.1,8.9,30.46,NNW,340,0.0,-999.0,66,-99.99,,,0.00,0.0,cwc,2013-01-24 08:35:00,
2013-01-24 01:40:00,21.3,9.1,30.46,NNW,340,0.0,-999.0,66,-99.99,,,0.00,0.0,cwc,2013-01-24 08:40:00,
2013-01-24 01:45:00,21.4,8.8,30.46,NNW,340,1.0,-999.0,65,-99.99,,,0.00,0.0,cwc,2013-01-24 08:45:00,
2013-01-24 01:55:00,20.5,8.6,30.46,NNW,340,2.0,-999.0,67,-99.99,,,0.00,0.0,cwc,2013-01-24 08:55:00,
2013-01-24 02:00:00,20.0,8.5,30.46,NNW,340,1.0,-999.0,68,-99.99,,,0.00,0.0,cwc,2013-01-24 09:00:00,
2013-01-24 02:05:00,19.7,8.2,30.46,NNW,340,0.0,-999.0,68,-99.99,,,0.00,0.0,cwc,2013-01-24 09:05:00,
2013-01-24 02:10:00,19.3,8.1,30.46,NNW,340,1.0,-999.0,69,-99.99,,,0.00,0.0,cwc,2013-01-24 09:10:00,
2013-01-24 02:15:00,19.0,8.2,30.46,NNW,340,0.0,-999.0,70,-99.99,,,0.00,0.0,cwc,2013-01-24 09:15:00,
2013-01-24 02:20:00,18.7,7.9,30.46,NNW,340,0.0,-999.0,70,-99.99,,,0.00,0.0,cwc,2013-01-24 09:20:00,
2013-01-24 02:25:00,18.6,7.8,30.46,NNW,340,3.0,-999.0,70,-99.99,,,0.00,0.0,cwc,2013-01-24 09:25:00,
2013-01-24 02:30:00,18.9,8.1,30.46,NNW,340,1.0,-999.0,70,-99.99,,,0.00,0.0,cwc,2013-01-24 09:30:00,
2013-01-24 02:35:00,19.3,8.1,30.46,NNW,340,1.0,-999.0,69,-99.99,,,0.00,0.0,cwc,2013-01-24 09:35:00,
2013-01-24 02:40:00,19.7,8.2,30.46,NNW,340,0.0,-999.0,68,-99.99,,,0.00,0.0,cwc,2013-01-24 09:40:00,
2013-01-24 02:45:00,19.9,7.7,30.46,NNW,337,8.0,-999.0,66,-99.99,,,0.00,0.0,cwc,2013-01-24 09:45:00,
2013-01-24 02:50:00,20.6,8.0,30.46,NW,325,5.0,-999.0,65,-99.99,,,0.00,0.0,cwc,2013-01-24 09:50:00,
2013-01-24 02:55:00,21.0,7.7,30.46,NNW,347,3.0,-999.0,63,-99.99,,,0.00,0.0,cwc,2013-01-24 09:55:00,
2013-01-24 03:00:00,21.1,7.8,30.46,North,355,3.0,-999.0,63,-99.99,,,0.00,0.0,cwc,2013-01-24 10:00:00,
2013-01-24 03:05:00,21.2,7.5,30.46,North,355,0.0,-999.0,62,-99.99,,,0.00,0.0,cwc,2013-01-24 10:05:00,
2013-01-24 03:10:00,21.3,7.6,30.46,North,355,3.0,-999.0,62,-99.99,,,0.00,0.0,cwc,2013-01-24 10:10:00,
2013-01-24 03:15:00,21.1,7.4,30.46,North,355,2.0,-999.0,62,-99.99,,,0.00,0.0,cwc,2013-01-24 10:15:00,
2013-01-24 03:20:00,20.2,6.5,30.46,North,355,0.0,-999.0,62,-99.99,,,0.00,0.0,cwc,2013-01-24 10:20:00,
2013-01-24 03:25:00,19.4,6.4,30.45,North,355,0.0,-999.0,64,-99.99,,,0.00,0.0,cwc,2013-01-24 10:25:00,
2013-01-24 03:30:00,18.7,6.5,30.45,North,355,1.0,-999.0,66,-99.99,,,0.00,0.0,cwc,2013-01-24 10:30:00,
2013-01-24 03:35:00,18.1,6.2,30.45,North,355,0.0,-999.0,67,-99.99,,,0.00,0.0,cwc,2013-01-24 10:35:00,
2013-01-24 03:40:00,17.7,6.2,30.45,North,355,1.0,-999.0,68,-99.99,,,0.00,0.0,cwc,2013-01-24 10:40:00,
2013-01-24 03:45:00,17.1,5.6,30.45,North,355,0.0,-999.0,68,-99.99,,,0.00,0.0,cwc,2013-01-24 10:45:00,
2013-01-24 03:50:00,16.5,5.3,30.45,North,355,0.0,-999.0,69,-99.99,,,0.00,0.0,cwc,2013-01-24 10:50:00,
2013-01-24 03:55:00,16.1,5.3,30.45,North,355,1.0,-999.0,70,-99.99,,,0.00,0.0,cwc,2013-01-24 10:55:00,
2013-01-24 04:00:00,15.4,5.3,30.45,North,355,2.0,-999.0,72,-99.99,,,0.00,0.0,cwc,2013-01-24 11:00:00,
2013-01-24 04:05:00,15.2,5.8,30.45,North,355,1.0,-999.0,74,-99.99,,,0.00,0.0,cwc,2013-01-24 11:05:00,
2013-01-24 04:10:00,15.1,5.7,30.45,North,355,0.0,-999.0,74,-99.99,,,0.00,0.0,cwc,2013-01-24 11:10:00,
2013-01-24 04:15:00,15.0,5.6,30.45,North,355,0.0,-999.0,74,-99.99,,,0.00,0.0,cwc,2013-01-24 11:15:00,
2013-01-24 04:20:00,14.8,5.4,30.45,North,355,0.0,-999.0,74,-99.99,,,0.00,0.0,cwc,2013-01-24 11:20:00,
2013-01-24 04:25:00,14.6,5.2,30.45,North,355,0.0,-999.0,74,-99.99,,,0.00,0.0,cwc,2013-01-24 11:25:00,
2013-01-24 04:30:00,14.4,5.0,30.45,North,355,0.0,-999.0,74,-99.99,,,0.00,0.0,cwc,2013-01-24 11:30:00,
2013-01-24 04:35:00,14.2,4.8,30.45,North,355,0.0,-999.0,74,-99.99,,,0.00,0.0,cwc,2013-01-24 11:35:00,
2013-01-24 04:40:00,13.9,4.5,30.45,North,355,0.0,-999.0,74,-99.99,,,0.00,0.0,cwc,2013-01-24 11:40:00,
2013-01-24 04:45:00,13.7,4.7,30.45,North,355,0.0,-999.0,75,-99.99,,,0.00,0.0,cwc,2013-01-24 11:45:00,
2013-01-24 04:50:00,13.4,4.4,30.46,North,355,0.0,-999.0,75,-99.99,,,0.00,0.0,cwc,2013-01-24 11:50:00,
2013-01-24 04:55:00,13.0,4.4,30.46,North,355,2.0,-999.0,76,-99.99,,,0.00,0.0,cwc,2013-01-24 11:55:00,
2013-01-24 05:00:00,13.0,5.1,30.45,North,355,3.0,-999.0,78,-99.99,,,0.00,0.0,cwc,2013-01-24 12:00:00,
2013-01-24 05:05:00,13.5,5.9,30.45,North,355,1.0,-999.0,79,-99.99,,,0.00,0.0,cwc,2013-01-24 12:05:00,
2013-01-24 05:10:00,14.0,5.7,30.45,North,355,2.0,-999.0,77,-99.99,,,0.00,0.0,cwc,2013-01-24 12:10:00,
2013-01-24 05:15:00,13.8,5.2,30.45,North,355,2.0,-999.0,76,-99.99,,,0.00,0.0,cwc,2013-01-24 12:15:00,
2013-01-24 05:20:00,13.4,4.8,30.45,North,355,1.0,-999.0,76,-99.99,,,0.00,0.0,cwc,2013-01-24 12:20:00,
2013-01-24 05:25:00,13.1,4.5,30.45,North,355,0.0,-999.0,76,-99.99,,,0.00,0.0,cwc,2013-01-24 12:25:00,
2013-01-24 05:30:00,12.8,4.9,30.45,North,355,0.0,-999.0,78,-99.99,,,0.00,0.0,cwc,2013-01-24 12:30:00,
2013-01-24 05:35:00,12.7,4.8,30.45,North,355,0.0,-999.0,78,-99.99,,,0.00,0.0,cwc,2013-01-24 12:35:00,
2013-01-24 05:40:00,12.5,4.6,30.45,North,355,0.0,-999.0,78,-99.99,,,0.00,0.0,cwc,2013-01-24 12:40:00,
2013-01-24 05:45:00,12.3,4.0,30.45,North,355,0.0,-999.0,77,-99.99,,,0.00,0.0,cwc,2013-01-24 12:45:00,
2013-01-24 05:50:00,12.1,4.2,30.46,North,355,0.0,-999.0,78,-99.99,,,0.00,0.0,cwc,2013-01-24 12:50:00,
2013-01-24 05:55:00,11.9,4.0,30.46,North,355,1.0,-999.0,78,-99.99,,,0.00,0.0,cwc,2013-01-24 12:55:00,
2013-01-24 06:00:00,11.8,4.2,30.46,North,355,0.0,-999.0,79,-99.99,,,0.00,0.0,cwc,2013-01-24 13:00:00,
2013-01-24 06:05:00,11.7,4.5,30.46,North,355,0.0,-999.0,80,-99.99,,,0.00,0.0,cwc,2013-01-24 13:05:00,
2013-01-24 06:10:00,11.8,4.6,30.47,North,355,0.0,-999.0,80,-99.99,,,0.00,0.0,cwc,2013-01-24 13:10:00,
2013-01-24 06:15:00,11.9,4.7,30.47,North,355,1.0,-999.0,80,-99.99,,,0.00,0.0,cwc,2013-01-24 13:15:00,
2013-01-24 06:20:00,11.9,4.3,30.47,North,355,0.0,-999.0,79,-99.99,,,0.00,0.0,cwc,2013-01-24 13:20:00,
2013-01-24 06:25:00,11.6,4.0,30.47,North,355,0.0,-999.0,79,-99.99,,,0.00,0.0,cwc,2013-01-24 13:25:00,
2013-01-24 06:30:00,11.5,4.3,30.47,North,355,0.0,-999.0,80,-99.99,,,0.00,0.0,cwc,2013-01-24 13:30:00,
2013-01-24 06:40:00,12.3,5.8,30.48,North,355,0.0,-999.0,82,-99.99,,,0.00,0.0,cwc,2013-01-24 13:40:00,
2013-01-24 06:45:00,13.3,5.7,30.48,North,355,2.0,-999.0,79,-99.99,,,0.00,0.0,cwc,2013-01-24 13:45:00,
2013-01-24 06:50:00,13.1,4.1,30.48,North,355,1.0,-999.0,75,-99.99,,,0.00,0.0,cwc,2013-01-24 13:50:00,
2013-01-24 06:55:00,12.6,4.0,30.48,North,355,0.0,-999.0,76,-99.99,,,0.00,0.0,cwc,2013-01-24 13:55:00,
2013-01-24 07:00:00,12.2,3.9,30.48,North,355,0.0,-999.0,77,-99.99,,,0.00,0.0,cwc,2013-01-24 14:00:00,
2013-01-24 07:05:00,12.0,3.7,30.48,North,355,2.0,-999.0,77,-99.99,,,0.00,0.0,cwc,2013-01-24 14:05:00,
2013-01-24 07:15:00,11.5,3.6,30.48,North,355,2.0,-999.0,78,-99.99,,,0.00,0.0,cwc,2013-01-24 14:15:00,
2013-01-24 07:20:00,11.4,3.8,30.48,North,355,0.0,-999.0,79,-99.99,,,0.00,5.0,cwc,2013-01-24 14:20:00,
2013-01-24 07:25:00,11.2,3.6,30.48,North,355,0.0,-999.0,79,-99.99,,,0.00,7.0,cwc,2013-01-24 14:25:00,
2013-01-24 07:30:00,10.9,3.7,30.48,North,355,0.0,-999.0,80,-99.99,,,0.00,9.0,cwc,2013-01-24 14:30:00,
2013-01-24 07:35:00,10.9,3.7,30.48,North,355,2.0,-999.0,80,-99.99,,,0.00,16.0,cwc,2013-01-24 14:35:00,
2013-01-24 07:40:00,11.0,4.2,30.48,North,355,2.0,-999.0,81,-99.99,,,0.00,39.0,cwc,2013-01-24 14:40:00,
2013-01-24 07:45:00,11.1,4.3,30.48,North,355,2.0,-999.0,81,-99.99,,,0.00,18.0,cwc,2013-01-24 14:45:00,
2013-01-24 07:50:00,11.2,4.0,30.48,North,355,1.0,-999.0,80,-99.99,,,0.00,23.0,cwc,2013-01-24 14:50:00,
2013-01-24 07:55:00,11.4,4.6,30.48,North,355,2.0,-999.0,81,-99.99,,,0.00,21.0,cwc,2013-01-24 14:55:00,
2013-01-24 08:00:00,11.7,4.5,30.48,North,355,2.0,-999.0,80,-99.99,,,0.00,28.0,cwc,2013-01-24 15:00:00,
2013-01-24 08:05:00,11.8,4.6,30.48,North,355,0.0,-999.0,80,-99.99,,,0.00,33.0,cwc,2013-01-24 15:05:00,
2013-01-24 08:10:00,11.9,4.7,30.48,North,355,0.0,-999.0,80,-99.99,,,0.00,39.0,cwc,2013-01-24 15:10:00,
2013-01-24 08:15:00,12.0,4.8,30.48,North,355,1.0,-999.0,80,-99.99,,,0.00,179.0,cwc,2013-01-24 15:15:00,
2013-01-24 08:20:00,12.5,6.0,30.48,North,355,0.0,-999.0,82,-99.99,,,0.00,239.0,cwc,2013-01-24 15:20:00,
2013-01-24 08:25:00,13.7,7.6,30.49,North,355,0.0,-999.0,83,-99.99,,,0.00,265.0,cwc,2013-01-24 15:25:00,
2013-01-24 08:30:00,14.9,8.1,30.48,North,355,0.0,-999.0,81,-99.99,,,0.00,255.0,cwc,2013-01-24 15:30:00,
2013-01-24 08:35:00,16.1,8.5,30.48,North,355,2.0,-999.0,79,-99.99,,,0.00,237.0,cwc,2013-01-24 15:35:00,
2013-01-24 08:40:00,17.2,8.2,30.49,North,355,0.0,-999.0,75,-99.99,,,0.00,98.0,cwc,2013-01-24 15:40:00,
2013-01-24 08:45:00,17.8,8.1,30.48,North,355,2.0,-999.0,73,-99.99,,,0.00,334.0,cwc,2013-01-24 15:45:00,
2013-01-24 08:50:00,18.4,8.7,30.48,North,355,0.0,-999.0,73,-99.99,,,0.00,381.0,cwc,2013-01-24 15:50:00,
2013-01-24 08:55:00,19.2,8.0,30.48,North,355,3.0,-999.0,69,-99.99,,,0.00,394.0,cwc,2013-01-24 15:55:00,
2013-01-24 09:00:00,20.4,8.2,30.48,North,355,1.0,-999.0,66,-99.99,,,0.00,406.0,cwc,2013-01-24 16:00:00,
2013-01-24 09:05:00,21.5,8.5,30.48,North,355,1.0,-999.0,64,-99.99,,,0.00,269.0,cwc,2013-01-24 16:05:00,
2013-01-24 09:10:00,22.5,9.2,30.47,North,355,0.0,-999.0,63,-99.99,,,0.00,452.0,cwc,2013-01-24 16:10:00,
2013-01-24 09:15:00,23.9,9.5,30.46,North,355,3.0,-999.0,60,-99.99,,,0.00,480.0,cwc,2013-01-24 16:15:00,
2013-01-24 09:20:00,24.7,9.2,30.46,North,355,2.0,-999.0,57,-99.99,,,0.00,241.0,cwc,2013-01-24 16:20:00,
2013-01-24 09:25:00,25.0,9.5,30.46,North,355,2.0,-999.0,57,-99.99,,,0.00,134.0,cwc,2013-01-24 16:25:00,
2013-01-24 09:30:00,25.1,9.3,30.46,North,355,2.0,-999.0,56,-99.99,,,0.00,116.0,cwc,2013-01-24 16:30:00,
2013-01-24 09:35:00,25.3,8.7,30.46,North,355,3.0,-999.0,54,-99.99,,,0.00,132.0,cwc,2013-01-24 16:35:00,
2013-01-24 09:40:00,25.7,9.1,30.47,North,355,2.0,-999.0,54,-99.99,,,0.00,316.0,cwc,2013-01-24 16:40:00,
2013-01-24 09:45:00,26.2,9.3,30.47,North,355,1.0,-999.0,53,-99.99,,,0.00,401.0,cwc,2013-01-24 16:45:00,
2013-01-24 09:50:00,26.6,9.3,30.47,North,355,4.0,-999.0,52,-99.99,,,0.00,439.0,cwc,2013-01-24 16:50:00,
2013-01-24 09:55:00,26.9,9.3,30.47,North,355,4.0,-999.0,51,-99.99,,,0.00,452.0,cwc,2013-01-24 16:55:00,
2013-01-24 10:00:00,27.4,9.8,30.47,North,355,1.0,-999.0,51,-99.99,,,0.00,462.0,cwc,2013-01-24 17:00:00,
2013-01-24 10:10:00,29.0,10.6,30.46,North,355,1.0,-999.0,49,-99.99,,,0.00,475.0,cwc,2013-01-24 17:10:00,
2013-01-24 10:15:00,29.8,11.1,30.46,North,355,0.0,-999.0,48,-99.99,,,0.00,410.0,cwc,2013-01-24 17:15:00,
2013-01-24 10:20:00,30.6,11.9,30.45,North,355,0.0,-999.0,48,-99.99,,,0.00,524.0,cwc,2013-01-24 17:20:00,
2013-01-24 10:25:00,31.4,12.0,30.45,North,355,0.0,-999.0,46,-99.99,,,0.00,527.0,cwc,2013-01-24 17:25:00,
2013-01-24 10:30:00,32.4,12.6,30.44,North,355,0.0,-999.0,45,-99.99,,,0.00,478.0,cwc,2013-01-24 17:30:00,
2013-01-24 10:35:00,33.1,12.9,30.44,North,355,0.0,-999.0,44,-99.99,,,0.00,578.0,cwc,2013-01-24 17:35:00,
2013-01-24 10:40:00,33.7,12.8,30.43,North,355,3.0,-999.0,42,-99.99,,,0.00,178.0,cwc,2013-01-24 17:40:00,
2013-01-24 10:45:00,33.9,13.0,30.43,North,355,3.0,-999.0,42,-99.99,,,0.00,571.0,cwc,2013-01-24 17:45:00,
2013-01-24 10:50:00,34.2,13.3,30.43,North,355,2.0,-999.0,42,-99.99,,,0.00,550.0,cwc,2013-01-24 17:50:00,
2013-01-24 10:55:00,34.4,13.2,30.42,North,355,0.0,-999.0,41,-99.99,,,0.00,613.0,cwc,2013-01-24 17:55:00,
2013-01-24 11:00:00,35.2,13.6,30.42,North,355,0.0,-999.0,40,-99.99,,,0.00,578.0,cwc,2013-01-24 18:00:00,
2013-01-24 11:05:00,35.8,13.8,30.42,North,355,3.0,-999.0,39,-99.99,,,0.00,578.0,cwc,2013-01-24 18:05:00,
2013-01-24 11:10:00,36.2,14.2,30.42,North,355,1.0,-999.0,39,-99.99,,,0.00,577.0,cwc,2013-01-24 18:10:00,
2013-01-24 11:15:00,36.8,14.8,30.41,North,355,1.0,-999.0,39,-99.99,,,0.00,580.0,cwc,2013-01-24 18:15:00,
2013-01-24 11:20:00,37.5,15.2,30.40,North,355,0.0,-999.0,38,-99.99,,,0.00,585.0,cwc,2013-01-24 18:20:00,
2013-01-24 11:25:00,38.3,15.6,30.40,North,355,1.0,-999.0,37,-99.99,,,0.00,589.0,cwc,2013-01-24 18:25:00,
2013-01-24 11:30:00,38.8,15.8,30.39,North,355,1.0,-999.0,36,-99.99,,,0.00,594.0,cwc,2013-01-24 18:30:00,
2013-01-24 11:35:00,39.3,16.3,30.39,North,355,1.0,-999.0,36,-99.99,,,0.00,606.0,cwc,2013-01-24 18:35:00,
2013-01-24 11:40:00,39.9,16.1,30.39,North,355,0.0,-999.0,34,-99.99,,,0.00,594.0,cwc,2013-01-24 18:40:00,
2013-01-24 11:45:00,40.6,16.5,30.38,North,355,0.0,-999.0,33,-99.99,,,0.00,624.0,cwc,2013-01-24 18:45:00,
2013-01-24 11:55:00,42.2,18.1,30.37,North,355,3.0,-999.0,33,-99.99,,,0.00,591.0,cwc,2013-01-24 18:55:00,
2013-01-24 12:00:00,42.6,18.5,30.37,North,355,1.0,-999.0,33,-99.99,,,0.00,580.0,cwc,2013-01-24 19:00:00,
2013-01-24 12:05:00,43.0,18.5,30.36,North,355,0.0,-999.0,32,-99.99,,,0.00,410.0,cwc,2013-01-24 19:05:00,
2013-01-24 12:10:00,43.3,19.5,30.36,North,355,2.0,-999.0,34,-99.99,,,0.00,262.0,cwc,2013-01-24 19:10:00,
2013-01-24 12:15:00,43.9,19.1,30.35,North,355,1.0,-999.0,31,-99.99,,,0.00,649.0,cwc,2013-01-24 19:15:00,
2013-01-24 12:25:00,45.6,20.4,30.35,North,355,3.0,-999.0,30,-99.99,,,0.00,624.0,cwc,2013-01-24 19:25:00,
2013-01-24 12:30:00,46.4,20.8,30.34,North,355,2.0,-999.0,29,-99.99,,,0.00,626.0,cwc,2013-01-24 19:30:00,
2013-01-24 12:35:00,46.7,21.1,30.34,North,355,0.0,-999.0,29,-99.99,,,0.00,647.0,cwc,2013-01-24 19:35:00,
2013-01-24 12:40:00,47.0,21.4,30.33,North,355,1.0,-999.0,29,-99.99,,,0.00,631.0,cwc,2013-01-24 19:40:00,
2013-01-24 12:45:00,47.5,21.6,30.33,North,351,4.0,-999.0,28,-99.99,,,0.00,578.0,cwc,2013-01-24 19:45:00,
2013-01-24 12:55:00,48.5,22.6,30.32,North,351,0.0,-999.0,28,-99.99,,,0.00,608.0,cwc,2013-01-24 19:55:00,
2013-01-24 13:00:00,49.7,23.4,30.32,North,350,3.0,-999.0,27,-99.99,,,0.00,601.0,cwc,2013-01-24 20:00:00,
2013-01-24 13:05:00,50.2,23.6,30.32,North,351,5.0,-999.0,26,-99.99,,,0.00,606.0,cwc,2013-01-24 20:05:00,
2013-01-24 13:10:00,50.5,24.2,30.31,North,355,2.0,-999.0,27,-99.99,,,0.00,596.0,cwc,2013-01-24 20:10:00,
2013-01-24 13:15:00,51.5,25.2,30.31,WSW,253,5.0,-999.0,27,-99.99,,,0.00,582.0,cwc,2013-01-24 20:15:00,
2013-01-24 13:20:00,54.0,27.0,30.31,SW,233,0.0,-999.0,25,-99.99,,,0.00,577.0,cwc,2013-01-24 20:20:00,
2013-01-24 13:25:00,55.9,28.5,30.30,SW,233,7.0,-999.0,24,-99.99,,,0.00,573.0,cwc,2013-01-24 20:25:00,
2013-01-24 13:30:00,56.9,29.5,30.30,SSW,205,7.0,-999.0,24,-99.99,,,0.00,490.0,cwc,2013-01-24 20:30:00,
2013-01-24 13:40:00,57.5,29.4,30.29,SW,230,2.0,-999.0,22,-99.99,,,0.00,550.0,cwc,2013-01-24 20:40:00,
2013-01-24 13:45:00,58.1,30.4,30.28,SSW,211,5.0,-999.0,23,-99.99,,,0.00,552.0,cwc,2013-01-24 20:45:00,
2013-01-24 13:50:00,58.6,30.5,30.28,SSW,200,5.0,-999.0,22,-99.99,,,0.00,376.0,cwc,2013-01-24 20:50:00,
2013-01-24 13:55:00,59.0,30.9,30.28,SSW,202,0.0,-999.0,22,-99.99,,,0.00,510.0,cwc,2013-01-24 20:55:00,
2013-01-24 14:00:00,59.6,31.5,30.27,SSW,202,0.0,-999.0,22,-99.99,,,0.00,510.0,cwc,2013-01-24 21:00:00,
2013-01-24 14:05:00,60.0,31.6,30.27,SSW,211,0.0,-999.0,21,-99.99,,,0.00,510.0,cwc,2013-01-24 21:05:00,
2013-01-24 14:10:00,60.4,32.3,30.27,SW,218,4.0,-999.0,22,-99.99,,,0.00,497.0,cwc,2013-01-24 21:10:00,
2013-01-24 14:15:00,60.5,32.4,30.27,SW,227,0.0,-999.0,22,-99.99,,,0.00,490.0,cwc,2013-01-24 21:15:00,
2013-01-24 14:20:00,60.7,32.3,30.27,SW,231,3.0,-999.0,21,-99.99,,,0.00,482.0,cwc,2013-01-24 21:20:00,
2013-01-24 14:25:00,60.7,32.3,30.27,SW,217,3.0,-999.0,21,-99.99,,,0.00,475.0,cwc,2013-01-24 21:25:00,
2013-01-24 14:30:00,60.5,32.1,30.26,SSW,207,3.0,-999.0,21,-99.99,,,0.00,457.0,cwc,2013-01-24 21:30:00,
2013-01-24 14:40:00,61.1,33.0,30.26,SW,220,0.0,-999.0,22,-99.99,,,0.00,462.0,cwc,2013-01-24 21:40:00,
2013-01-24 14:45:00,61.4,33.0,30.26,SW,230,8.0,-999.0,21,-99.99,,,0.00,461.0,cwc,2013-01-24 21:45:00,
2013-01-24 14:50:00,61.1,32.7,30.26,SW,214,2.0,-999.0,21,-99.99,,,0.00,390.0,cwc,2013-01-24 21:50:00,
2013-01-24 14:55:00,61.1,33.0,30.26,WSW,254,1.0,-999.0,22,-99.99,,,0.00,417.0,cwc,2013-01-24 21:55:00,
2013-01-24 15:00:00,61.4,33.0,30.26,WSW,240,5.0,-999.0,21,-99.99,,,0.00,334.0,cwc,2013-01-24 22:00:00,
2013-01-24 15:05:00,61.0,32.6,30.26,WSW,254,6.0,-999.0,21,-99.99,,,0.00,378.0,cwc,2013-01-24 22:05:00,
2013-01-24 15:10:00,60.8,32.7,30.26,SW,230,5.0,-999.0,22,-99.99,,,0.00,362.0,cwc,2013-01-24 22:10:00,
2013-01-24 15:15:00,60.6,32.5,30.25,SW,222,9.0,-999.0,22,-99.99,,,0.00,346.0,cwc,2013-01-24 22:15:00,
2013-01-24 15:20:00,60.5,32.4,30.25,WSW,240,5.0,-999.0,22,-99.99,,,0.00,334.0,cwc,2013-01-24 22:20:00,
2013-01-24 15:25:00,60.3,32.2,30.25,WSW,253,6.0,-999.0,22,-99.99,,,0.00,311.0,cwc,2013-01-24 22:25:00,
2013-01-24 15:30:00,60.0,31.9,30.26,SW,214,5.0,-999.0,22,-99.99,,,0.00,301.0,cwc,2013-01-24 22:30:00,
2013-01-24 15:35:00,60.0,31.9,30.25,SW,226,0.0,-999.0,22,-99.99,,,0.00,285.0,cwc,2013-01-24 22:35:00,
2013-01-24 15:45:00,60.9,32.8,30.26,SW,233,7.0,-999.0,22,-99.99,,,0.00,269.0,cwc,2013-01-24 22:45:00,
2013-01-24 15:50:00,60.8,32.7,30.25,SW,232,5.0,-999.0,22,-99.99,,,0.00,253.0,cwc,2013-01-24 22:50:00,
2013-01-24 15:55:00,60.5,32.4,30.25,SSW,198,5.0,-999.0,22,-99.99,,,0.00,232.0,cwc,2013-01-24 22:55:00,
2013-01-24 16:00:00,60.4,32.3,30.25,SW,223,6.0,-999.0,22,-99.99,,,0.00,218.0,cwc,2013-01-24 23:00:00,
2013-01-24 16:05:00,60.2,32.5,30.25,South,186,5.0,-999.0,23,-99.99,,,0.00,209.0,cwc,2013-01-24 23:05:00,
2013-01-24 16:10:00,60.2,32.5,30.25,SSW,194,4.0,-999.0,23,-99.99,,,0.00,190.0,cwc,2013-01-24 23:10:00,
2013-01-24 16:15:00,59.8,32.1,30.26,WSW,248,0.0,-999.0,23,-99.99,,,0.00,114.0,cwc,2013-01-24 23:15:00,
2013-01-24 16:20:00,59.0,31.6,30.26,WSW,245,6.0,-999.0,24,-99.99,,,0.00,65.0,cwc,2013-01-24 23:20:00,
2013-01-24 16:25:00,58.5,31.1,30.26,WSW,249,9.0,-999.0,24,-99.99,,,0.00,35.0,cwc,2013-01-24 23:25:00,
2013-01-24 16:30:00,57.8,31.2,30.26,SW,232,7.0,-999.0,26,-99.99,,,0.00,39.0,cwc,2013-01-24 23:30:00,
2013-01-24 16:40:00,56.8,30.2,30.26,SW,222,7.0,-999.0,26,-99.99,,,0.00,56.0,cwc,2013-01-24 23:40:00,
2013-01-24 16:45:00,56.3,30.0,30.26,WSW,245,10.0,-999.0,27,-99.99,,,0.00,46.0,cwc,2013-01-24 23:45:00,
2013-01-24 16:55:00,55.7,29.4,30.27,SW,236,7.0,-999.0,27,-99.99,,,0.00,18.0,cwc,2013-01-24 23:55:00,
2013-01-24 17:00:00,55.5,29.6,30.27,SW,223,5.0,-999.0,28,-99.99,,,0.00,12.0,cwc,2013-01-25 00:00:00,
2013-01-24 17:10:00,54.9,29.0,30.27,SW,235,10.0,-999.0,28,-99.99,,,0.00,9.0,cwc,2013-01-25 00:10:00,
2013-01-24 17:15:00,54.8,28.9,30.27,SW,225,7.0,-999.0,28,-99.99,,,0.00,5.0,cwc,2013-01-25 00:15:00,
2013-01-24 17:20:00,54.6,28.7,30.27,SW,229,3.0,-999.0,28,-99.99,,,0.00,0.0,cwc,2013-01-25 00:20:00,
2013-01-24 17:25:00,54.4,28.5,30.27,SW,234,5.0,-999.0,28,-99.99,,,0.00,0.0,cwc,2013-01-25 00:25:00,
2013-01-24 17:30:00,54.1,28.2,30.27,West,261,7.0,-999.0,28,-99.99,,,0.00,0.0,cwc,2013-01-25 00:30:00,
2013-01-24 17:35:00,54.0,28.1,30.28,SW,232,6.0,-999.0,28,-99.99,,,0.00,0.0,cwc,2013-01-25 00:35:00,
2013-01-24 17:40:00,53.9,28.0,30.28,SW,229,3.0,-999.0,28,-99.99,,,0.00,0.0,cwc,2013-01-25 00:40:00,
2013-01-24 17:45:00,53.8,28.2,30.28,SW,231,0.0,-999.0,29,-99.99,,,0.00,0.0,cwc,2013-01-25 00:45:00,
2013-01-24 17:50:00,53.5,27.9,30.28,SW,230,4.0,-999.0,29,-99.99,,,0.00,0.0,cwc,2013-01-25 00:50:00,
2013-01-24 18:00:00,53.0,27.8,30.29,SW,233,4.0,-999.0,30,-99.99,,,0.00,0.0,cwc,2013-01-25 01:00:00,
2013-01-24 18:05:00,52.9,27.3,30.29,SW,232,1.0,-999.0,29,-99.99,,,0.00,0.0,cwc,2013-01-25 01:05:00,
2013-01-24 18:10:00,52.8,27.6,30.29,SW,232,1.0,-999.0,30,-99.99,,,0.00,0.0,cwc,2013-01-25 01:10:00,
2013-01-24 18:15:00,52.6,27.4,30.30,SW,232,2.0,-999.0,30,-99.99,,,0.00,0.0,cwc,2013-01-25 01:15:00,
2013-01-24 18:20:00,52.3,27.1,30.30,SW,230,7.0,-999.0,30,-99.99,,,0.00,0.0,cwc,2013-01-25 01:20:00,
2013-01-24 18:25:00,52.2,27.0,30.30,SW,230,4.0,-999.0,30,-99.99,,,0.00,0.0,cwc,2013-01-25 01:25:00,
2013-01-24 18:30:00,52.1,26.9,30.30,SW,230,0.0,-999.0,30,-99.99,,,0.00,0.0,cwc,2013-01-25 01:30:00,
2013-01-24 18:40:00,51.6,26.8,30.30,SW,230,0.0,-999.0,31,-99.99,,,0.00,0.0,cwc,2013-01-25 01:40:00,
2013-01-24 18:45:00,51.3,26.5,30.30,SW,230,1.0,-999.0,31,-99.99,,,0.00,0.0,cwc,2013-01-25 01:45:00,
2013-01-24 18:50:00,50.9,26.1,30.30,SW,230,0.0,-999.0,31,-99.99,,,0.00,0.0,cwc,2013-01-25 01:50:00,
2013-01-24 18:55:00,50.6,26.1,30.29,SW,230,0.0,-999.0,32,-99.99,,,0.00,0.0,cwc,2013-01-25 01:55:00,
2013-01-24 19:00:00,50.6,26.1,30.29,SW,233,2.0,-999.0,32,-99.99,,,0.00,0.0,cwc,2013-01-25 02:00:00,
2013-01-24 19:05:00,50.7,26.2,30.29,SW,233,5.0,-999.0,32,-99.99,,,0.00,0.0,cwc,2013-01-25 02:05:00,
2013-01-24 19:10:00,50.9,26.4,30.29,SW,233,3.0,-999.0,32,-99.99,,,0.00,0.0,cwc,2013-01-25 02:10:00,
2013-01-24 19:15:00,51.1,26.3,30.29,SW,235,2.0,-999.0,31,-99.99,,,0.00,0.0,cwc,2013-01-25 02:15:00,
2013-01-24 19:20:00,51.0,26.9,30.29,SW,234,1.0,-999.0,33,-99.99,,,0.00,0.0,cwc,2013-01-25 02:20:00,
2013-01-24 19:25:00,50.7,26.6,30.29,SW,233,0.0,-999.0,33,-99.99,,,0.00,0.0,cwc,2013-01-25 02:25:00,
2013-01-24 19:30:00,49.9,26.1,30.29,SW,233,0.0,-999.0,34,-99.99,,,0.00,0.0,cwc,2013-01-25 02:30:00,
2013-01-24 19:35:00,48.7,25.3,30.29,SW,233,0.0,-999.0,35,-99.99,,,0.00,0.0,cwc,2013-01-25 02:35:00,
2013-01-24 19:40:00,47.7,24.7,30.29,SW,234,2.0,-999.0,36,-99.99,,,0.00,0.0,cwc,2013-01-25 02:40:00,
2013-01-24 19:45:00,46.4,23.7,30.29,SW,234,2.0,-999.0,37,-99.99,,,0.00,0.0,cwc,2013-01-25 02:45:00,
2013-01-24 19:50:00,45.3,23.3,30.29,SW,234,0.0,-999.0,39,-99.99,,,0.00,0.0,cwc,2013-01-25 02:50:00,
2013-01-24 19:55:00,44.5,22.9,30.29,SW,234,2.0,-999.0,40,-99.99,,,0.00,0.0,cwc,2013-01-25 02:55:00,
2013-01-24 20:00:00,43.7,22.5,30.29,SW,233,2.0,-999.0,41,-99.99,,,0.00,0.0,cwc,2013-01-25 03:00:00,
2013-01-24 20:10:00,43.1,22.6,30.29,SW,233,1.0,-999.0,43,-99.99,,,0.00,0.0,cwc,2013-01-25 03:10:00,
2013-01-24 20:15:00,42.8,22.3,30.29,SW,234,0.0,-999.0,43,-99.99,,,0.00,0.0,cwc,2013-01-25 03:15:00,
2013-01-24 20:20:00,42.5,22.3,30.28,SW,234,0.0,-999.0,44,-99.99,,,0.00,0.0,cwc,2013-01-25 03:20:00,
2013-01-24 20:25:00,42.4,22.2,30.29,SW,233,0.0,-999.0,44,-99.99,,,0.00,0.0,cwc,2013-01-25 03:25:00,
2013-01-24 20:30:00,42.1,21.9,30.30,SW,234,0.0,-999.0,44,-99.99,,,0.00,0.0,cwc,2013-01-25 03:30:00,
2013-01-24 20:35:00,41.9,22.1,30.30,SW,234,0.0,-999.0,45,-99.99,,,0.00,0.0,cwc,2013-01-25 03:35:00,
2013-01-24 20:40:00,41.4,22.0,30.30,SW,233,0.0,-999.0,46,-99.99,,,0.00,0.0,cwc,2013-01-25 03:40:00,
2013-01-24 20:45:00,41.0,21.6,30.30,SW,233,0.0,-999.0,46,-99.99,,,0.00,0.0,cwc,2013-01-25 03:45:00,
2013-01-24 20:50:00,40.7,21.6,30.30,SW,233,0.0,-999.0,47,-99.99,,,0.00,0.0,cwc,2013-01-25 03:50:00,
2013-01-24 20:55:00,40.4,21.7,30.31,SW,234,1.0,-999.0,48,-99.99,,,0.00,0.0,cwc,2013-01-25 03:55:00,
2013-01-24 21:00:00,40.2,21.8,30.31,SW,234,0.0,-999.0,49,-99.99,,,0.00,0.0,cwc,2013-01-25 04:00:00,
2013-01-24 21:05:00,40.0,21.6,30.31,SW,233,0.0,-999.0,49,-99.99,,,0.00,0.0,cwc,2013-01-25 04:05:00,
2013-01-24 21:10:00,39.8,21.8,30.31,SW,234,0.0,-999.0,50,-99.99,,,0.00,0.0,cwc,2013-01-25 04:10:00,
2013-01-24 21:15:00,39.5,21.5,30.31,SW,234,0.0,-999.0,50,-99.99,,,0.00,0.0,cwc,2013-01-25 04:15:00,
2013-01-24 21:20:00,39.4,21.8,30.32,SW,233,1.0,-999.0,51,-99.99,,,0.00,0.0,cwc,2013-01-25 04:20:00,
2013-01-24 21:25:00,39.5,21.5,30.32,SW,234,0.0,-999.0,50,-99.99,,,0.00,0.0,cwc,2013-01-25 04:25:00,
2013-01-24 21:30:00,39.8,21.8,30.32,SW,234,0.0,-999.0,50,-99.99,,,0.00,0.0,cwc,2013-01-25 04:30:00,
2013-01-24 21:35:00,40.4,22.4,30.32,SW,234,0.0,-999.0,50,-99.99,,,0.00,0.0,cwc,2013-01-25 04:35:00,
2013-01-24 21:45:00,40.0,22.0,30.31,SW,234,1.0,-999.0,50,-99.99,,,0.00,0.0,cwc,2013-01-25 04:45:00,
2013-01-24 21:50:00,39.6,21.6,30.31,SW,234,4.0,-999.0,50,-99.99,,,0.00,0.0,cwc,2013-01-25 04:50:00,
2013-01-24 21:55:00,39.2,21.6,30.31,SW,235,0.0,-999.0,51,-99.99,,,0.00,0.0,cwc,2013-01-25 04:55:00,
2013-01-24 22:05:00,38.9,21.6,30.31,SW,235,0.0,-999.0,52,-99.99,,,0.00,0.0,cwc,2013-01-25 05:05:00,
2013-01-24 22:10:00,38.8,21.5,30.31,SW,235,3.0,-999.0,52,-99.99,,,0.00,0.0,cwc,2013-01-25 05:10:00,
2013-01-24 22:15:00,38.8,21.5,30.31,SW,235,0.0,-999.0,52,-99.99,,,0.00,0.0,cwc,2013-01-25 05:15:00,
2013-01-24 22:20:00,38.8,21.5,30.30,SW,234,3.0,-999.0,52,-99.99,,,0.00,0.0,cwc,2013-01-25 05:20:00,
2013-01-24 22:30:00,40.7,22.7,30.30,WSW,256,2.0,-999.0,50,-99.99,,,0.00,0.0,cwc,2013-01-25 05:30:00,
2013-01-24 22:40:00,41.0,22.3,30.30,WSW,257,0.0,-999.0,48,-99.99,,,0.00,0.0,cwc,2013-01-25 05:40:00,
2013-01-24 22:45:00,40.7,22.3,30.30,WSW,257,0.0,-999.0,49,-99.99,,,0.00,0.0,cwc,2013-01-25 05:45:00,
2013-01-24 22:50:00,40.5,22.1,30.29,WSW,257,1.0,-999.0,49,-99.99,,,0.00,0.0,cwc,2013-01-25 05:50:00,
2013-01-24 22:55:00,40.5,22.1,30.29,WSW,257,1.0,-999.0,49,-99.99,,,0.00,0.0,cwc,2013-01-25 05:55:00,
2013-01-24 23:00:00,40.5,22.1,30.29,WSW,257,0.0,-999.0,49,-99.99,,,0.00,0.0,cwc,2013-01-25 06:00:00,
2013-01-24 23:05:00,40.1,22.1,30.29,WSW,257,1.0,-999.0,50,-99.99,,,0.00,0.0,cwc,2013-01-25 06:05:00,
2013-01-24 23:10:00,39.5,21.9,30.30,WSW,257,0.0,-999.0,51,-99.99,,,0.00,0.0,cwc,2013-01-25 06:10:00,
2013-01-24 23:15:00,39.1,21.5,30.30,WSW,257,0.0,-999.0,51,-99.99,,,0.00,0.0,cwc,2013-01-25 06:15:00,
2013-01-24 23:20:00,38.9,21.6,30.30,WSW,257,1.0,-999.0,52,-99.99,,,0.00,0.0,cwc,2013-01-25 06:20:00,
2013-01-24 23:25:00,38.9,21.6,30.30,WSW,257,2.0,-999.0,52,-99.99,,,0.00,0.0,cwc,2013-01-25 06:25:00,
2013-01-24 23:30:00,38.6,21.7,30.30,West,259,1.0,-999.0,53,-99.99,,,0.00,0.0,cwc,2013-01-25 06:30:00,
2013-01-24 23:40:00,37.7,21.1,30.30,West,259,1.0,-999.0,54,-99.99,,,0.00,0.0,cwc,2013-01-25 06:40:00,
2013-01-24 23:45:00,37.5,21.3,30.30,West,259,0.0,-999.0,55,-99.99,,,0.00,0.0,cwc,2013-01-25 06:45:00,
2013-01-24 23:50:00,36.8,21.0,30.30,West,259,2.0,-999.0,56,-99.99,,,0.00,0.0,cwc,2013-01-25 06:50:00,
2013-01-24 23:55:00,36.2,20.7,30.30,WSW,258,0.0,-999.0,57,-99.99,,,0.00,0.0,cwc,2013-01-25 06:55:00,